[[{"header":{"parameterUnit":"m.s-1","parameterCategory":1,"la1":30.2992,"la2":30.254,"lo1":-89.0895,"lo2":-89.0443,"dy":0.0025,"dx":0.0025,"nx":19,"ny":19,"refTime":"2026-05-06T09:00:00:Z","depth":0,"parameterNumber":2,"parameterNumberName":"U-component_of_WINDS"},"data":[0,0,0,-3.3937,-3.3942,-3.414,-3.4141,-3.4405,-3.4408,0,0,0,0,0,0,0,0,0,0,0,-3.3885,-3.3887,-3.3937,-3.3942,-3.414,-3.4141,-3.4405,-3.4408,0,0,0,0,0,0,0,0,0,0,0,-3.3884,-3.3886,-3.3889,-3.3943,-3.414,-3.4141,-3.4404,-3.4251,0,0,0,0,0,0,0,0,0,0,-3.4056,-3.4014,-3.3886,-3.3889,-3.3944,-3.414,-3.4141,-3.4243,-3.426,-3.432,0,-3.4375,0,-3.4395,-3.4426,-3.4427,0,0,0,-3.3937,-3.4,-3.4048,-3.3889,-3.3946,-3.4139,-3.4049,-3.4253,-3.4272,-3.4343,-3.4378,-3.4388,-3.44,-3.4428,-3.4429,-3.4788,-3.479,0,0,-3.3926,-3.3924,-3.4034,-3.4061,-3.4031,-3.4043,-3.4056,-3.4264,-3.4303,-3.4379,-3.4394,-3.4404,-3.443,-3.4432,-3.4786,-3.4788,0,0,0,-3.3898,-3.3917,-3.3959,-3.405,-3.4085,-3.4049,-3.4063,-3.4294,-3.4307,-3.4397,-3.4407,-3.4431,-3.4435,-3.4784,-3.4787,-3.4878,0,0,0,-3.3891,-3.39,-3.3954,-3.3955,-3.4081,-3.4192,-3.4088,-3.4293,-3.4317,-3.4406,-3.4431,-3.4437,-3.4782,-3.4786,-3.4871,-3.4922,0,0,0,-3.387,-3.3898,-3.3929,-3.3955,-3.404,-3.4189,-3.4214,-3.4298,-3.4324,-3.4427,-3.4438,-3.4781,-3.4785,-3.4865,-3.4912,-3.5015,0,0,0,-3.3846,-3.4008,-3.393,-3.4115,-3.4038,-3.4244,-3.4213,-3.4366,-3.4466,-3.4433,-3.4782,-3.4787,-3.4863,-3.4906,-3.5009,-3.5101,-3.514,0,0,-3.4049,-3.4032,-3.4141,-3.4077,-3.4296,-3.4214,-3.4446,-3.4539,-3.4551,-3.4708,-3.4717,-3.4874,-3.4911,-3.5014,-3.5359,-3.5389,0,0,0,-3.4205,-3.4282,-3.4341,-3.4435,-3.451,-3.4579,-3.4637,-3.4671,-3.4804,-3.4632,-3.4939,-3.4962,-3.5022,-3.5066,-3.5093,-3.5144,-3.4807,-3.4807,-3.4806,-3.4489,-3.4495,-3.4674,-3.4704,-3.4796,-3.4854,-3.4929,-3.4985,-3.4965,-3.5037,-3.5084,-3.5292,-3.5344,-3.5364,-3.5418,-3.5134,-3.5134,-3.5135,-3.5135,-3.4786,-3.4896,-3.4865,-3.5027,-3.5033,-3.5169,-3.5231,-3.5212,-3.534,-3.5258,-3.5312,-3.5221,-3.5398,-3.5445,-3.5142,-3.5141,-3.514,-3.5139,-3.5139,-3.4972,-3.5026,-3.5065,-3.5201,-3.5306,-3.533,-3.5454,-3.5455,-3.5456,-3.5509,-3.5558,-3.5556,-3.5554,-3.5532,-3.5533,-3.5534,-3.5534,-3.5535,-3.5535,-3.515,-3.519,-3.5295,-3.5387,-3.5447,-3.5527,-3.5586,-3.5645,-3.5711,-3.5701,-3.5702,-3.5673,-3.5414,-3.5348,-3.5547,-3.5545,-3.5543,-3.5542,-3.5541,-3.5447,-3.538,-3.5541,-3.5601,-3.5709,-3.5812,-3.5811,-3.5932,-3.5981,-3.6042,-3.6003,-3.5811,-3.5794,-3.5773,-3.5719,-3.6001,-3.6001,-3.6001,-3.6001,-3.5604,-3.5595,-3.5759,-3.5855,-3.595,-3.5965,-3.6146,-3.6193,-3.6231,-3.6262,-3.6221,-3.6149,-3.6128,-3.6124,-3.6095,-3.6045,-3.6404,-3.6404,-3.6404,-3.5787,-3.5787,-3.5941,-3.5977,-3.6061,-3.6134,-3.6304,-3.6415,-3.6445,-3.6421,-3.6286,-3.6269,-3.6153,-3.6115,-3.6087,-3.6043,-3.595,0,0]},{"header":{"parameterUnit":"m.s-1","parameterCategory":1,"la1":30.2992,"la2":30.254,"lo1":-89.0895,"lo2":-89.0443,"dy":0.0025,"dx":0.0025,"nx":19,"ny":19,"refTime":"2026-05-06T09:00:00:Z","depth":0,"parameterNumber":3,"parameterNumberName":"V-component_of_WINDS"},"data":[0,0,0,-0.3639,-0.3639,-0.3609,-0.3608,-0.3579,-0.3579,0,0,0,0,0,0,0,0,0,0,0,-0.3653,-0.3653,-0.3639,-0.3639,-0.3609,-0.3608,-0.3579,-0.3579,0,0,0,0,0,0,0,0,0,0,0,-0.3653,-0.3653,-0.3653,-0.3638,-0.3609,-0.3608,-0.3579,-0.3599,0,0,0,0,0,0,0,0,0,0,-0.3627,-0.3644,-0.3653,-0.3653,-0.3638,-0.3609,-0.3608,-0.36,-0.3598,-0.3597,0,-0.3596,0,-0.3587,-0.3578,-0.3578,0,0,0,-0.3635,-0.3646,-0.3633,-0.3653,-0.3638,-0.3609,-0.3621,-0.3599,-0.3596,-0.3594,-0.3596,-0.3595,-0.3587,-0.3578,-0.3578,-0.3579,-0.3579,0,0,-0.3637,-0.3651,-0.3635,-0.3632,-0.3636,-0.3622,-0.362,-0.3597,-0.36,-0.3596,-0.3594,-0.3586,-0.3577,-0.3577,-0.3579,-0.3579,0,0,0,-0.3644,-0.3652,-0.364,-0.3633,-0.3627,-0.3621,-0.3619,-0.3601,-0.3596,-0.3593,-0.3586,-0.3577,-0.3577,-0.3578,-0.3579,-0.3599,0,0,0,-0.3645,-0.3656,-0.3641,-0.3649,-0.3628,-0.3614,-0.3624,-0.3598,-0.3595,-0.3586,-0.3577,-0.3577,-0.3578,-0.3579,-0.3598,-0.3608,0,0,0,-0.3653,-0.3657,-0.3654,-0.365,-0.3637,-0.3614,-0.3607,-0.3597,-0.359,-0.3578,-0.3577,-0.3578,-0.3579,-0.3598,-0.3606,-0.3611,0,0,0,-0.3667,-0.3675,-0.3655,-0.366,-0.3637,-0.3626,-0.3607,-0.3599,-0.359,-0.3577,-0.3578,-0.3579,-0.3597,-0.3605,-0.361,-0.3618,-0.3623,0,0,-0.3685,-0.3678,-0.368,-0.3661,-0.3657,-0.363,-0.3629,-0.3609,-0.3596,-0.3585,-0.3585,-0.3599,-0.3606,-0.3611,-0.3642,-0.3646,0,0,0,-0.369,-0.3692,-0.3687,-0.3679,-0.3662,-0.3649,-0.3627,-0.3619,-0.3609,-0.3593,-0.3601,-0.3605,-0.3608,-0.3611,-0.3614,-0.3615,-0.3581,-0.3581,-0.3581,-0.3737,-0.3717,-0.3719,-0.3695,-0.3687,-0.3663,-0.3655,-0.364,-0.3625,-0.3627,-0.3624,-0.3645,-0.365,-0.3652,-0.3653,-0.3626,-0.3626,-0.3626,-0.3627,-0.3761,-0.376,-0.3736,-0.3729,-0.3708,-0.3703,-0.3679,-0.3668,-0.366,-0.3646,-0.3648,-0.3635,-0.3656,-0.3656,-0.3628,-0.3628,-0.3628,-0.3627,-0.3627,-0.379,-0.3786,-0.3774,-0.3758,-0.3748,-0.3724,-0.3716,-0.3698,-0.3681,-0.3682,-0.3677,-0.3676,-0.3674,-0.368,-0.368,-0.3681,-0.3681,-0.3681,-0.3681,-0.3825,-0.3811,-0.3806,-0.3787,-0.3778,-0.3763,-0.3737,-0.3728,-0.3713,-0.3701,-0.37,-0.3685,-0.3661,-0.3656,-0.3682,-0.3682,-0.3681,-0.3681,-0.3681,-0.3858,-0.3847,-0.384,-0.383,-0.3804,-0.3795,-0.377,-0.3752,-0.3742,-0.3739,-0.3721,-0.3707,-0.3699,-0.3697,-0.3692,-0.3726,-0.3726,-0.3726,-0.3726,-0.3883,-0.3876,-0.3863,-0.3848,-0.3832,-0.3808,-0.38,-0.3779,-0.3756,-0.3748,-0.374,-0.3733,-0.3731,-0.3724,-0.3721,-0.3716,-0.3755,-0.3755,-0.3755,-0.3902,-0.3892,-0.3889,-0.3864,-0.3842,-0.3823,-0.3815,-0.38,-0.3771,-0.3756,-0.3742,-0.374,-0.3728,-0.3725,-0.3711,-0.3707,-0.3698,0,0]}]]